782  
NZUS93 KARX 251110  
HRRWXR  
 
CURRENT HOURLY OBSERVATIONS ACROSS  
MUCH OF THE UPPER MISSISSIPPI VALLEY  
NATIONAL WEATHER SERVICE LA CROSSE WI  
600 AM CDT THU JUL 25 2024  
 
   
..SOUTHEAST MINNESOTA
 
 
 
CITY SKY/WX TMP DP RH WIND PRES REMARKS  
ROCHESTER CLEAR 59 55 87 E6 30.24R  
WINONA NOT AVBL  
AUSTIN MOCLDY 61 59 94 CALM 30.24R  
ALBERT LEA PTCLDY 61 59 94 CALM 30.23R  
DODGE CENTER PTCLDY 57 55 94 CALM 30.25R  
PRESTON CLOUDY 59 59 100 CALM 30.24R  
OWATONNA CLEAR 59 55 88 E3 30.23R  
FARIBAULT CLEAR 55 54 94 CALM 30.24R FOG  

 
   
..ELSEWHERE IN MINNESOTA
 
 
 
CITY SKY/WX TMP DP RH WIND PRES REMARKS  
MINNEAPOLIS CLEAR 62 59 90 E7 30.24R  
INTNL FALLS CLEAR 48 46 93 CALM 30.22R  
DULUTH PTCLDY 56 51 84 S3 30.26R  
RED WING CLEAR 54 54 100 CALM 30.24R  
REDWOOD FALLS CLEAR 61 58 90 E3 30.21R  
MANKATO CLEAR 61 58 90 E7 30.23R  
WORTHINGTON PTCLDY 59 59 100 E5 30.21S FOG  
FAIRMONT CLEAR 60 59 96 CALM 30.22R  

 
   
..SOUTHWEST WISCONSIN
 
 
 
CITY SKY/WX TMP DP RH WIND PRES REMARKS  
LA CROSSE PTCLDY 59 56 89 CALM 30.24R  
PRAIRIE DU CHI FOG 59 59 99 CALM 30.24R VSB 3/4  
BOSCOBEL FOG 61 60 97 CALM 30.25R VSB<1/4  
LONE ROCK FOG 58 58 100 CALM 30.25R VSB<1/4  
PLATTEVILLE CLEAR 58 58 100 E3 30.24R  
FORT MC COY FOG 47 47 99 CALM 30.23S VSB 1/4  
CAMP DOUGLAS FOG 46 46 100 CALM 30.23R VSB 1/8  
MAUSTON-NEW LI CLEAR 53 53 100 CALM 30.25R FOG  
WIS DELLS FOG 56 56 100 CALM 30.25R VSB 1/4  

 
   
..ELSEWHERE IN WISCONSIN
 
 
 
CITY SKY/WX TMP DP RH WIND PRES REMARKS  
MILWAUKEE CLEAR 61 58 90 NW5 30.22R  
MADISON PTCLDY 56 55 97 CALM 30.24R FOG  
GREEN BAY MOCLDY 58 53 84 N5 30.26R  
EAU CLAIRE PTCLDY 51 50 96 NE3 30.25R  
BLACK RVR FLS FOG 47 47 100 CALM 30.25R VSB 1/2  
MEDFORD CLEAR 48 47 97 CALM 30.27R  
WAUSAU CLEAR 53 51 93 CALM 30.26R  
WIS RAPIDS CLEAR 53 52 96 CALM 30.26R  
MARSHFIELD CLEAR 57 54 89 NE3 30.26R  
RICE LAKE CLEAR 49 48 95 CALM 30.28R  

 
   
..NORTHEAST IOWA
 
 
 
CITY SKY/WX TMP DP RH WIND PRES REMARKS  
WATERLOO CLEAR 62 60 93 E3 30.20R  
DUBUQUE CLEAR 61 60 97 CALM 30.23R  
DECORAH CLOUDY 61 61 100 CALM 30.23R  
MASON CITY CLEAR 58 58 100 CALM 30.23R FOG  
CHARLES CITY PTCLDY 63 63 100 E6 30.22S  
OELWEIN CLEAR 61 61 100 E5 30.23R  

 
   
..ELSEWHERE IN IOWA
 
 
 
CITY SKY/WX TMP DP RH WIND PRES REMARKS  
DES MOINES PTCLDY 70 68 93 E8 30.17R  
IOWA CITY CLEAR 66 61 84 NE6 30.21R  
FORT DODGE MOCLDY N/A N/A N/A E7 30.20R HAZE  
MARSHALLTOWN MOCLDY 65 64 97 E6 30.20R  
CEDAR RAPIDS PTCLDY 63 62 97 E7 30.20R  

 
   
..NORTHERN ILLINOIS
 
 
 
CITY SKY/WX TMP DP RH WIND PRES REMARKS  
CHICAGO-OHARE PTCLDY 63 60 90 N5 30.22R  
CHICAGO-MIDWAY PTCLDY 66 58 75 N3 30.21R  
MOLINE CLEAR 64 62 93 E6 30.19R  
ROCKFORD MOCLDY 63 61 93 VRB3 30.25R  
PEORIA CLOUDY 69 65 86 E10 30.19R  

 
 
NOTE: "FAIR" INDICATES FEW OR NO CLOUDS BELOW 12,000 FEET WITH NO  
SIGNIFICANT WEATHER AND/OR OBSTRUCTIONS TO VISIBILITY. WIND  
SPEEDS ARE IN MILES-PER-HOUR.  
 
 
CLICK HERE TO GO TO PREVIOUS BULLETINS.

The Nexlab WI Page
The Nexlab IA Page
The Nexlab MN Page Main Text Page